QPF
0.01 0.01 0.01 0.00 0.00 0.01 0.01 0.01 0.01 0.01 0.02 0.02 0.02 0.01 0.01 0.01 0.01 0.00 0.00 0.01 0.01 0.01 0.01 0.02 0.02 0.02 0.02 0.02 0.02 0.03 0.04 0.05 0.06 0.04 0.03 0.04 0.04 0.05 0.05 0.05 0.06 0.07 0.06
0.01 0.01 0.01 0.01 0.00 0.00 0.01 0.00 0.01 0.01 0.01 0.02 0.02 0.01 0.01 0.01 0.00 0.00 0.00 0.00 0.01 0.01 0.01 0.01 0.01 0.02 0.02 0.02 0.02 0.02 0.02 0.03 0.04 0.04 0.03 0.03 0.04 0.05 0.04 0.04 0.04 0.05 0.06
0.01 0.00 0.00 0.00 0.00 0.00 0.00 0.00 0.00 0.01 0.01 0.01 0.02 0.01 0.01 0.00 0.00 0.00 0.00 0.00 0.00 0.00 0.01 0.01 0.01 0.02 0.02 0.02 0.02 0.02 0.02 0.02 0.03 0.04 0.03 0.03 0.04 0.05 0.05 0.05 0.04 0.04 0.05
0.00 0.00 0.00 0.00 0.00 0.00 0.00 0.00 0.00 0.01 0.01 0.01 0.01 0.01 0.01 0.00 0.00 0.00 0.00 0.00 0.00 0.00 0.01 0.01 0.01 0.01 0.02 0.02 0.03 0.03 0.03 0.03 0.03 0.04 0.04 0.03 0.03 0.04 0.05 0.05 0.06 0.05 0.04
0.00 0.00 0.00 0.01 0.01 0.01 0.00 0.00 0.00 0.00 0.00 0.01 0.01 0.01 0.01 0.00 0.00 0.00 0.01 0.01 0.01 0.01 0.01 0.01 0.01 0.01 0.02 0.03 0.03 0.04 0.04 0.04 0.04 0.04 0.04 0.03 0.03 0.03 0.04 0.05 0.05 0.05 0.05
0.00 0.00 0.00 0.00 0.00 0.01 0.01 0.00 0.00 0.00 0.00 0.00 0.01 0.01 0.01 0.00 0.00 0.01 0.02 0.02 0.02 0.02 0.01 0.01 0.01 0.01 0.01 0.02 0.02 0.03 0.03 0.04 0.04 0.04 0.03 0.03 0.03 0.03 0.03 0.03 0.03 0.05 0.05
0.01 0.00 0.00 0.00 0.00 0.00 0.00 0.01 0.00 0.00 0.00 0.00 0.00 0.01 0.01 0.00 0.01 0.01 0.02 0.03 0.02 0.01 0.01 0.01 0.01 0.01 0.01 0.01 0.01 0.01 0.02 0.02 0.03 0.03 0.04 0.02 0.02 0.02 0.02 0.03 0.03 0.04 0.05
0.01 0.01 0.01 0.00 0.00 0.00 0.00 0.00 0.00 0.00 0.00 0.00 0.00 0.00 0.01 0.01 0.01 0.01 0.02 0.02 0.01 0.00 0.00 0.00 0.00 0.00 0.01 0.01 0.02 0.02 0.01 0.01 0.01 0.01 0.02 0.02 0.02 0.02 0.02 0.03 0.04 0.04 0.04
0.02 0.02 0.01 0.00 0.00 0.00 0.00 0.00 0.00 0.00 0.01 0.01 0.01 0.01 0.00 0.01 0.01 0.01 0.02 0.01 0.01 0.00 0.00 0.00 0.00 0.00 0.01 0.02 0.03 0.03 0.02 0.01 0.01 0.01 0.02 0.02 0.02 0.03 0.03 0.04 0.05 0.05 0.04
0.01 0.02 0.02 0.01 0.01 0.00 0.00 0.00 0.00 0.00 0.01 0.01 0.01 0.01 0.01 0.00 0.01 0.01 0.02 0.02 0.02 0.01 0.00 0.00 0.00 0.01 0.01 0.02 0.03 0.04 0.03 0.01 0.01 0.01 0.01 0.02 0.02 0.02 0.03 0.04 0.05 0.06 0.05
0.01 0.02 0.03 0.02 0.01 0.01 0.00 0.00 0.00 0.00 0.01 0.01 0.01 0.01 0.01 0.01 0.01 0.01 0.02 0.03 0.03 0.02 0.01 0.00 0.00 0.01 0.02 0.03 0.03 0.03 0.03 0.02 0.02 0.02 0.01 0.02 0.02 0.02 0.03 0.03 0.03 0.04 0.05
0.02 0.02 0.03 0.03 0.02 0.01 0.01 0.01 0.00 0.01 0.01 0.01 0.01 0.01 0.01 0.01 0.01 0.01 0.02 0.02 0.03 0.03 0.02 0.01 0.01 0.02 0.02 0.02 0.02 0.02 0.02 0.02 0.02 0.02 0.02 0.02 0.02 0.02 0.02 0.02 0.02 0.03 0.03
0.02 0.02 0.02 0.03 0.02 0.02 0.01 0.01 0.01 0.01 0.01 0.01 0.01 0.02 0.02 0.02 0.02 0.01 0.01 0.02 0.02 0.02 0.01 0.01 0.01 0.02 0.02 0.01 0.01 0.01 0.02 0.02 0.02 0.02 0.02 0.02 0.01 0.01 0.02 0.02 0.02 0.02 0.03
0.02 0.02 0.02 0.02 0.03 0.02 0.01 0.01 0.01 0.01 0.01 0.01 0.02 0.02 0.02 0.03 0.04 0.04 0.04 0.03 0.03 0.02 0.01 0.01 0.01 0.01 0.01 0.01 0.01 0.01 0.02 0.02 0.02 0.02 0.01 0.01 0.01 0.01 0.01 0.02 0.02 0.02 0.03
0.01 0.01 0.01 0.02 0.03 0.02 0.02 0.01 0.01 0.01 0.02 0.03 0.03 0.04 0.04 0.05 0.06 0.07 0.06 0.05 0.04 0.04 0.03 0.02 0.01 0.01 0.01 0.01 0.01 0.01 0.02 0.02 0.02 0.02 0.01 0.01 0.01 0.01 0.01 0.01 0.02 0.02 0.02
0.01 0.01 0.01 0.02 0.03 0.03 0.03 0.02 0.02 0.02 0.02 0.02 0.03 0.03 0.04 0.05 0.06 0.06 0.05 0.04 0.04 0.03 0.03 0.02 0.02 0.01 0.01 0.01 0.02 0.02 0.02 0.02 0.02 0.02 0.01 0.01 0.01 0.01 0.01 0.01 0.02 0.02 0.02
0.01 0.01 0.01 0.01 0.02 0.02 0.03 0.03 0.02 0.02 0.02 0.02 0.01 0.02 0.02 0.03 0.03 0.04 0.04 0.03 0.03 0.02 0.02 0.01 0.01 0.01 0.01 0.01 0.01 0.02 0.02 0.02 0.02 0.02 0.02 0.02 0.02 0.02 0.02 0.01 0.01 0.02 0.01
0.01 0.02 0.02 0.02 0.02 0.02 0.02 0.02 0.02 0.02 0.02 0.02 0.02 0.02 0.02 0.02 0.03 0.03 0.03 0.02 0.02 0.02 0.02 0.02 0.02 0.02 0.02 0.02 0.02 0.02 0.01 0.01 0.01 0.02 0.02 0.02 0.02 0.02 0.02 0.01 0.01 0.01 0.01
0.01 0.01 0.02 0.02 0.02 0.02 0.02 0.02 0.02 0.02 0.02 0.02 0.02 0.02 0.02 0.02 0.02 0.02 0.02 0.02 0.02 0.02 0.02 0.03 0.03 0.03 0.03 0.03 0.03 0.03 0.02 0.02 0.02 0.02 0.01 0.01 0.02 0.02 0.02 0.02 0.02 0.02 0.02
0.01 0.01 0.01 0.02 0.02 0.02 0.02 0.02 0.02 0.02 0.02 0.02 0.02 0.02 0.02 0.02 0.02 0.02 0.02 0.02 0.02 0.03 0.03 0.03 0.03 0.03 0.03 0.04 0.04 0.04 0.04 0.03 0.03 0.03 0.02 0.01 0.01 0.02 0.02 0.01 0.02 0.02 0.02
0.01 0.01 0.01 0.01 0.02 0.02 0.02 0.02 0.02 0.02 0.01 0.01 0.01 0.01 0.02 0.03 0.02 0.01 0.01 0.01 0.02 0.02 0.02 0.03 0.03 0.03 0.03 0.03 0.03 0.03 0.04 0.04 0.04 0.03 0.03 0.02 0.02 0.02 0.02 0.02 0.02 0.02 0.02
0.01 0.01 0.01 0.01 0.02 0.02 0.02 0.02 0.02 0.02 0.01 0.01 0.01 0.01 0.01 0.01 0.01 0.01 0.01 0.01 0.01 0.02 0.02 0.02 0.02 0.02 0.02 0.03 0.03 0.03 0.04 0.04 0.04 0.03 0.03 0.03 0.03 0.03 0.03 0.03 0.03 0.03 0.03
0.01 0.01 0.01 0.01 0.01 0.01 0.02 0.02 0.02 0.02 0.02 0.01 0.01 0.01 0.01 0.01 0.01 0.01 0.01 0.01 0.01 0.01 0.01 0.02 0.02 0.02 0.02 0.02 0.03 0.03 0.04 0.04 0.03 0.04 0.04 0.04 0.04 0.04 0.04 0.04 0.04 0.04 0.04
0.01 0.01 0.01 0.01 0.01 0.01 0.01 0.01 0.01 0.02 0.02 0.01 0.01 0.01 0.01 0.01 0.01 0.01 0.01 0.01 0.01 0.01 0.01 0.01 0.02 0.02 0.02 0.02 0.02 0.03 0.03 0.03 0.04 0.04 0.05 0.05 0.05 0.04 0.05 0.05 0.05 0.05 0.05
0.01 0.01 0.01 0.01 0.01 0.01 0.01 0.01 0.01 0.01 0.01 0.01 0.01 0.01 0.01 0.01 0.01 0.01 0.01 0.01 0.01 0.01 0.01 0.01 0.01 0.02 0.02 0.02 0.02 0.02 0.03 0.03 0.04 0.05 0.06 0.07 0.06 0.05 0.05 0.05 0.05 0.05 0.05
0.01 0.01 0.01 0.01 0.01 0.01 0.01 0.01 0.01 0.01 0.01 0.01 0.01 0.01 0.01 0.01 0.01 0.01 0.01 0.01 0.01 0.01 0.01 0.01 0.01 0.01 0.02 0.02 0.02 0.02 0.02 0.03 0.03 0.04 0.05 0.05 0.05 0.04 0.04 0.05 0.05 0.05 0.05
MSLP
1027.31 1027.34 1027.32 1027.25 1027.11 1026.91 1026.67 1026.40 1026.11 1025.81 1025.50 1025.17 1024.81 1024.44 1024.05 1023.65 1023.25 1022.86 1022.50 1022.16 1021.83 1021.48 1021.10 1020.64 1020.09 1019.44 1018.71 1017.92 1017.14 1016.42 1015.81 1015.35 1015.08 1014.96 1015.00 1015.12 1015.28 1015.42 1015.51 1015.52 1015.47 1015.38 1015.29
1027.33 1027.34 1027.30 1027.20 1027.06 1026.87 1026.65 1026.40 1026.15 1025.87 1025.58 1025.25 1024.89 1024.49 1024.06 1023.61 1023.16 1022.74 1022.35 1022.00 1021.68 1021.36 1021.01 1020.61 1020.12 1019.54 1018.88 1018.17 1017.47 1016.83 1016.31 1015.95 1015.78 1015.78 1015.92 1016.15 1016.41 1016.64 1016.80 1016.86 1016.85 1016.77 1016.68
1027.38 1027.37 1027.31 1027.20 1027.03 1026.84 1026.63 1026.40 1026.16 1025.90 1025.62 1025.29 1024.92 1024.49 1024.02 1023.53 1023.04 1022.57 1022.16 1021.80 1021.48 1021.19 1020.89 1020.55 1020.14 1019.66 1019.09 1018.49 1017.89 1017.34 1016.91 1016.63 1016.52 1016.58 1016.77 1017.04 1017.35 1017.62 1017.82 1017.93 1017.96 1017.92 1017.86
1027.42 1027.40 1027.32 1027.18 1027.00 1026.80 1026.58 1026.36 1026.12 1025.88 1025.60 1025.27 1024.88 1024.42 1023.92 1023.39 1022.85 1022.36 1021.91 1021.54 1021.24 1020.98 1020.74 1020.48 1020.17 1019.79 1019.35 1018.86 1018.37 1017.92 1017.57 1017.34 1017.26 1017.33 1017.52 1017.79 1018.08 1018.35 1018.57 1018.71 1018.77 1018.79 1018.79
1027.41 1027.38 1027.29 1027.13 1026.94 1026.72 1026.49 1026.26 1026.03 1025.78 1025.50 1025.16 1024.76 1024.28 1023.75 1023.19 1022.62 1022.09 1021.63 1021.25 1020.96 1020.73 1020.55 1020.37 1020.16 1019.90 1019.59 1019.23 1018.85 1018.49 1018.20 1018.01 1017.93 1017.98 1018.13 1018.35 1018.60 1018.85 1019.05 1019.21 1019.32 1019.40 1019.48
1027.34 1027.31 1027.21 1027.04 1026.83 1026.60 1026.36 1026.13 1025.89 1025.64 1025.35 1025.01 1024.59 1024.10 1023.55 1022.96 1022.37 1021.81 1021.32 1020.93 1020.64 1020.44 1020.31 1020.20 1020.08 1019.94 1019.74 1019.49 1019.22 1018.95 1018.72 1018.55 1018.47 1018.48 1018.57 1018.73 1018.93 1019.13 1019.32 1019.50 1019.65 1019.81 1019.98
1027.22 1027.19 1027.08 1026.91 1026.69 1026.44 1026.20 1025.96 1025.72 1025.47 1025.18 1024.84 1024.41 1023.91 1023.35 1022.74 1022.12 1021.54 1021.03 1020.62 1020.32 1020.13 1020.02 1019.96 1019.91 1019.85 1019.75 1019.60 1019.42 1019.22 1019.04 1018.89 1018.80 1018.78 1018.83 1018.94 1019.08 1019.26 1019.44 1019.64 1019.85 1020.08 1020.34
1027.07 1027.04 1026.92 1026.75 1026.52 1026.28 1026.04 1025.80 1025.56 1025.31 1025.02 1024.68 1024.26 1023.75 1023.18 1022.55 1021.92 1021.31 1020.77 1020.34 1020.02 1019.81 1019.70 1019.65 1019.64 1019.62 1019.59 1019.51 1019.40 1019.27 1019.13 1019.02 1018.94 1018.91 1018.93 1019.01 1019.14 1019.30 1019.50 1019.73 1020.00 1020.30 1020.65
1026.91 1026.87 1026.76 1026.58 1026.36 1026.12 1025.88 1025.65 1025.42 1025.18 1024.90 1024.56 1024.13 1023.63 1023.05 1022.42 1021.77 1021.15 1020.58 1020.12 1019.76 1019.52 1019.38 1019.32 1019.30 1019.30 1019.29 1019.26 1019.20 1019.12 1019.03 1018.95 1018.90 1018.89 1018.93 1019.02 1019.16 1019.34 1019.58 1019.85 1020.18 1020.54 1020.96
1026.77 1026.72 1026.60 1026.43 1026.21 1025.98 1025.75 1025.53 1025.30 1025.06 1024.79 1024.45 1024.04 1023.54 1022.96 1022.33 1021.68 1021.04 1020.46 1019.96 1019.57 1019.29 1019.10 1019.00 1018.96 1018.94 1018.94 1018.92 1018.89 1018.85 1018.81 1018.79 1018.79 1018.83 1018.91 1019.04 1019.23 1019.46 1019.74 1020.06 1020.44 1020.85 1021.31
1026.67 1026.60 1026.47 1026.29 1026.07 1025.85 1025.62 1025.40 1025.18 1024.94 1024.67 1024.34 1023.93 1023.44 1022.88 1022.26 1021.62 1020.99 1020.40 1019.88 1019.46 1019.14 1018.91 1018.77 1018.68 1018.63 1018.61 1018.59 1018.58 1018.57 1018.58 1018.61 1018.68 1018.79 1018.94 1019.14 1019.39 1019.68 1020.02 1020.39 1020.80 1021.25 1021.73
1026.60 1026.50 1026.35 1026.15 1025.93 1025.70 1025.47 1025.25 1025.03 1024.79 1024.51 1024.18 1023.77 1023.30 1022.76 1022.16 1021.55 1020.94 1020.37 1019.86 1019.44 1019.09 1018.84 1018.65 1018.53 1018.45 1018.40 1018.37 1018.37 1018.39 1018.44 1018.53 1018.67 1018.86 1019.09 1019.37 1019.68 1020.04 1020.42 1020.82 1021.26 1021.71 1022.18
1026.56 1026.41 1026.23 1026.01 1025.77 1025.52 1025.29 1025.05 1024.81 1024.56 1024.27 1023.94 1023.54 1023.08 1022.57 1022.02 1021.45 1020.89 1020.36 1019.89 1019.49 1019.16 1018.89 1018.69 1018.55 1018.44 1018.37 1018.33 1018.34 1018.38 1018.47 1018.61 1018.81 1019.07 1019.38 1019.72 1020.10 1020.50 1020.92 1021.34 1021.77 1022.20 1022.64
1026.52 1026.32 1026.09 1025.84 1025.57 1025.31 1025.05 1024.80 1024.54 1024.27 1023.96 1023.62 1023.23 1022.79 1022.31 1021.80 1021.30 1020.81 1020.35 1019.95 1019.60 1019.31 1019.08 1018.89 1018.74 1018.63 1018.55 1018.51 1018.52 1018.58 1018.69 1018.88 1019.13 1019.44 1019.80 1020.20 1020.62 1021.05 1021.48 1021.90 1022.30 1022.70 1023.08
1026.45 1026.20 1025.92 1025.63 1025.34 1025.05 1024.77 1024.50 1024.22 1023.92 1023.60 1023.25 1022.86 1022.44 1022.00 1021.55 1021.12 1020.71 1020.35 1020.03 1019.76 1019.55 1019.37 1019.22 1019.10 1019.00 1018.93 1018.89 1018.91 1018.98 1019.11 1019.32 1019.60 1019.95 1020.34 1020.77 1021.21 1021.64 1022.06 1022.45 1022.82 1023.16 1023.48
1026.34 1026.03 1025.71 1025.39 1025.08 1024.78 1024.48 1024.20 1023.90 1023.59 1023.25 1022.88 1022.50 1022.09 1021.69 1021.30 1020.93 1020.62 1020.35 1020.13 1019.97 1019.84 1019.74 1019.65 1019.57 1019.51 1019.46 1019.44 1019.46 1019.54 1019.68 1019.90 1020.20 1020.55 1020.96 1021.38 1021.82 1022.24 1022.63 1022.98 1023.29 1023.58 1023.83
1026.17 1025.81 1025.46 1025.13 1024.81 1024.51 1024.22 1023.93 1023.63 1023.31 1022.96 1022.59 1022.20 1021.81 1021.44 1021.09 1020.80 1020.56 1020.39 1020.27 1020.20 1020.16 1020.15 1020.13 1020.11 1020.09 1020.07 1020.07 1020.11 1020.19 1020.34 1020.56 1020.85 1021.20 1021.59 1022.00 1022.42 1022.80 1023.16 1023.47 1023.73 1023.95 1024.14
1025.93 1025.55 1025.19 1024.86 1024.56 1024.28 1024.01 1023.74 1023.45 1023.13 1022.79 1022.42 1022.03 1021.65 1021.30 1021.00 1020.75 1020.58 1020.48 1020.44 1020.46 1020.51 1020.56 1020.62 1020.66 1020.69 1020.71 1020.73 1020.78 1020.87 1021.02 1021.23 1021.51 1021.84 1022.21 1022.60 1022.98 1023.33 1023.64 1023.90 1024.11 1024.28 1024.42
1025.63 1025.25 1024.91 1024.61 1024.35 1024.12 1023.89 1023.65 1023.38 1023.08 1022.75 1022.38 1022.01 1021.64 1021.30 1021.02 1020.81 1020.68 1020.63 1020.66 1020.74 1020.85 1020.97 1021.09 1021.18 1021.26 1021.31 1021.36 1021.43 1021.53 1021.67 1021.88 1022.14 1022.45 1022.79 1023.14 1023.49 1023.80 1024.07 1024.29 1024.45 1024.57 1024.67
1025.30 1024.94 1024.64 1024.39 1024.19 1024.01 1023.84 1023.64 1023.42 1023.15 1022.84 1022.49 1022.12 1021.76 1021.43 1021.16 1020.97 1020.87 1020.85 1020.91 1021.03 1021.19 1021.35 1021.51 1021.65 1021.76 1021.84 1021.92 1022.00 1022.11 1022.25 1022.45 1022.69 1022.98 1023.29 1023.61 1023.92 1024.20 1024.43 1024.61 1024.73 1024.82 1024.87
1024.97 1024.65 1024.40 1024.21 1024.07 1023.96 1023.84 1023.71 1023.53 1023.30 1023.01 1022.68 1022.33 1021.99 1021.67 1021.41 1021.22 1021.13 1021.12 1021.20 1021.33 1021.51 1021.70 1021.88 1022.04 1022.17 1022.28 1022.38 1022.47 1022.59 1022.73 1022.91 1023.14 1023.40 1023.69 1023.98 1024.25 1024.49 1024.69 1024.84 1024.93 1024.98 1025.00
1024.69 1024.42 1024.22 1024.09 1024.00 1023.95 1023.88 1023.80 1023.66 1023.47 1023.22 1022.92 1022.59 1022.26 1021.95 1021.70 1021.52 1021.43 1021.42 1021.49 1021.63 1021.80 1022.00 1022.19 1022.36 1022.50 1022.62 1022.73 1022.83 1022.94 1023.08 1023.25 1023.46 1023.70 1023.95 1024.21 1024.45 1024.66 1024.83 1024.95 1025.01 1025.03 1025.02
1024.50 1024.27 1024.12 1024.03 1023.98 1023.96 1023.93 1023.88 1023.78 1023.62 1023.40 1023.13 1022.83 1022.52 1022.24 1022.00 1021.83 1021.74 1021.72 1021.79 1021.91 1022.07 1022.25 1022.43 1022.60 1022.74 1022.86 1022.96 1023.06 1023.16 1023.29 1023.44 1023.62 1023.83 1024.06 1024.29 1024.50 1024.68 1024.82 1024.91 1024.96 1024.96 1024.93
1024.45 1024.25 1024.11 1024.04 1024.00 1023.99 1023.97 1023.93 1023.84 1023.71 1023.52 1023.28 1023.02 1022.75 1022.49 1022.27 1022.11 1022.02 1022.00 1022.05 1022.16 1022.30 1022.46 1022.61 1022.76 1022.88 1022.98 1023.07 1023.15 1023.24 1023.34 1023.47 1023.62 1023.80 1024.00 1024.20 1024.38 1024.54 1024.65 1024.73 1024.76 1024.75 1024.70
1024.56 1024.36 1024.21 1024.12 1024.07 1024.03 1024.00 1023.95 1023.86 1023.74 1023.57 1023.37 1023.14 1022.90 1022.68 1022.49 1022.35 1022.27 1022.24 1022.28 1022.36 1022.47 1022.60 1022.72 1022.83 1022.92 1022.99 1023.05 1023.10 1023.16 1023.23 1023.33 1023.45 1023.60 1023.76 1023.93 1024.10 1024.24 1024.34 1024.41 1024.44 1024.42 1024.38
1024.81 1024.59 1024.41 1024.28 1024.17 1024.09 1024.02 1023.93 1023.84 1023.71 1023.55 1023.37 1023.18 1022.98 1022.79 1022.63 1022.51 1022.44 1022.41 1022.43 1022.48 1022.56 1022.65 1022.73 1022.80 1022.84 1022.88 1022.89 1022.91 1022.93 1022.96 1023.02 1023.11 1023.23 1023.37 1023.52 1023.67 1023.80 1023.91 1023.98 1024.02 1024.02 1023.98
Thickness
5382 5378 5375 5371 5367 5364 5361 5358 5354 5352 5350 5348 5347 5346 5345 5344 5343 5343 5343 5344 5345 5347 5348 5350 5353 5355 5357 5360 5363 5366 5369 5373 5380 5387 5389 5393 5397 5402 5407 5411 5417 5423 5429
5370 5366 5362 5359 5356 5352 5349 5346 5343 5339 5337 5335 5334 5333 5332 5331 5330 5329 5329 5331 5332 5334 5335 5337 5339 5341 5344 5347 5350 5353 5356 5360 5364 5370 5375 5377 5381 5386 5391 5396 5401 5407 5413
5358 5354 5350 5347 5343 5340 5337 5334 5331 5328 5325 5323 5321 5320 5319 5318 5318 5317 5318 5319 5320 5321 5323 5324 5326 5328 5331 5334 5337 5340 5344 5347 5350 5355 5361 5364 5367 5371 5375 5380 5385 5391 5397
5346 5342 5339 5335 5332 5329 5326 5323 5320 5317 5314 5311 5310 5308 5308 5307 5306 5306 5307 5308 5309 5310 5311 5312 5314 5316 5319 5322 5325 5328 5332 5334 5337 5341 5346 5350 5353 5356 5359 5365 5370 5375 5381
5335 5331 5328 5325 5321 5318 5314 5311 5308 5305 5303 5300 5298 5297 5296 5296 5296 5297 5297 5298 5299 5299 5300 5301 5303 5306 5308 5311 5314 5317 5319 5322 5325 5328 5332 5337 5340 5342 5345 5349 5354 5360 5366
5324 5320 5317 5314 5310 5307 5303 5300 5297 5294 5292 5290 5287 5286 5285 5286 5287 5289 5289 5289 5289 5290 5290 5291 5293 5294 5297 5300 5303 5306 5308 5310 5313 5315 5319 5323 5327 5328 5331 5335 5339 5344 5352
5314 5310 5307 5303 5299 5296 5292 5289 5286 5283 5280 5279 5277 5276 5276 5276 5278 5280 5280 5280 5279 5279 5280 5281 5283 5284 5286 5288 5291 5294 5296 5299 5302 5304 5306 5309 5313 5316 5318 5322 5325 5328 5335
5303 5299 5296 5292 5288 5285 5281 5278 5274 5272 5269 5268 5268 5267 5267 5267 5269 5270 5271 5271 5270 5270 5271 5272 5273 5274 5276 5278 5281 5284 5286 5288 5290 5292 5296 5299 5301 5303 5306 5309 5312 5316 5321
5292 5289 5285 5281 5277 5274 5270 5267 5264 5261 5259 5258 5258 5258 5257 5258 5259 5261 5262 5261 5261 5261 5262 5263 5264 5265 5268 5270 5272 5274 5277 5279 5280 5282 5285 5288 5290 5293 5295 5297 5300 5303 5309
5283 5279 5275 5271 5268 5264 5261 5257 5254 5251 5250 5249 5249 5248 5248 5249 5250 5252 5253 5252 5253 5254 5254 5255 5256 5258 5260 5261 5262 5264 5266 5269 5270 5272 5274 5276 5279 5281 5284 5286 5288 5291 5296
5272 5268 5265 5261 5258 5255 5252 5248 5245 5242 5240 5239 5239 5240 5239 5240 5241 5243 5244 5243 5244 5245 5246 5247 5248 5250 5252 5253 5254 5254 5257 5259 5260 5261 5263 5266 5268 5271 5273 5275 5277 5279 5283
5261 5257 5254 5251 5248 5246 5242 5239 5236 5233 5231 5230 5230 5231 5231 5231 5233 5234 5235 5236 5237 5237 5239 5239 5240 5242 5244 5245 5245 5246 5248 5249 5250 5251 5253 5255 5258 5260 5262 5264 5267 5269 5273
5251 5247 5245 5242 5239 5237 5233 5231 5228 5225 5223 5224 5223 5224 5224 5224 5225 5226 5227 5228 5229 5230 5231 5232 5234 5235 5235 5235 5236 5237 5237 5237 5239 5241 5243 5245 5247 5249 5251 5253 5256 5259 5263
5242 5239 5237 5234 5231 5228 5226 5225 5222 5219 5217 5217 5217 5217 5217 5217 5218 5219 5219 5220 5221 5222 5223 5224 5225 5226 5225 5226 5226 5225 5226 5228 5229 5231 5233 5235 5237 5238 5241 5243 5246 5249 5252
5235 5232 5229 5227 5224 5221 5219 5217 5216 5214 5212 5213 5212 5211 5210 5211 5212 5214 5214 5214 5214 5214 5215 5215 5215 5215 5215 5215 5216 5216 5217 5219 5220 5222 5223 5224 5227 5229 5231 5233 5235 5238 5240
5228 5225 5222 5219 5217 5215 5213 5211 5210 5209 5209 5209 5208 5207 5206 5206 5207 5208 5208 5208 5207 5208 5206 5205 5205 5205 5206 5206 5207 5208 5209 5209 5211 5212 5213 5215 5217 5219 5221 5223 5225 5228 5231
5220 5218 5215 5213 5211 5208 5207 5205 5203 5204 5203 5203 5202 5201 5201 5201 5201 5201 5200 5200 5199 5198 5196 5195 5195 5196 5196 5197 5198 5199 5200 5201 5201 5203 5205 5206 5208 5210 5212 5214 5216 5219 5222
5213 5211 5209 5206 5204 5202 5200 5198 5197 5196 5196 5195 5195 5194 5194 5194 5194 5193 5192 5191 5189 5187 5186 5185 5186 5186 5187 5188 5189 5190 5191 5193 5194 5195 5197 5198 5199 5201 5203 5205 5207 5210 5213
5205 5204 5202 5200 5198 5196 5194 5192 5190 5189 5188 5187 5187 5186 5187 5186 5186 5184 5183 5181 5179 5178 5178 5177 5177 5178 5178 5180 5181 5182 5183 5185 5187 5188 5190 5191 5193 5194 5196 5198 5200 5203 5205
5198 5198 5196 5194 5192 5190 5188 5186 5184 5183 5181 5180 5179 5178 5178 5178 5177 5176 5174 5173 5171 5171 5170 5170 5170 5171 5171 5172 5174 5175 5177 5178 5180 5182 5184 5186 5187 5189 5191 5193 5195 5196 5198
5192 5190 5190 5187 5185 5183 5181 5179 5178 5176 5174 5173 5171 5171 5172 5170 5169 5168 5167 5166 5165 5164 5164 5164 5164 5165 5165 5166 5167 5169 5170 5173 5174 5176 5179 5181 5182 5184 5187 5189 5191 5192 5193
5185 5183 5181 5180 5178 5176 5175 5173 5171 5169 5168 5166 5165 5164 5165 5163 5161 5161 5161 5160 5159 5158 5158 5158 5159 5159 5160 5161 5162 5163 5165 5167 5170 5172 5174 5176 5178 5181 5183 5185 5187 5188 5189
5178 5176 5175 5173 5171 5170 5168 5166 5164 5163 5162 5160 5159 5158 5158 5156 5156 5155 5155 5155 5155 5154 5154 5154 5155 5156 5156 5157 5158 5159 5161 5164 5166 5168 5170 5172 5174 5176 5178 5181 5183 5185 5187
5171 5169 5168 5166 5165 5163 5161 5160 5158 5157 5155 5154 5153 5152 5151 5151 5150 5150 5150 5150 5150 5150 5151 5151 5152 5153 5153 5154 5156 5157 5159 5161 5163 5165 5168 5170 5172 5174 5176 5178 5180 5182 5184
5163 5162 5161 5159 5157 5156 5155 5153 5152 5150 5149 5148 5147 5147 5146 5145 5145 5145 5146 5146 5146 5147 5148 5148 5149 5150 5151 5152 5154 5156 5158 5161 5163 5165 5167 5169 5171 5172 5174 5175 5177 5179 5181
5156 5155 5153 5152 5150 5149 5148 5146 5145 5144 5142 5142 5141 5141 5140 5140 5140 5140 5141 5141 5142 5143 5144 5145 5146 5147 5149 5151 5153 5155 5157 5160 5162 5164 5165 5167 5169 5170 5172 5173 5175 5176 5178